Location: Coll
(42.4728°N, 0.7714°E)
Time: 07:36:10
(UTC+00:00)

USA 234 - Pass Details

Date: 23 October 2020
Orbit: 1100 x 1108 km, 123.0° (Epoch: 13 November)

Event Time Altitude Azimuth Distance (km) Brightness Sun altitude
Rises 03:00:30 0° 50° (NE) 3,924 7.0 -37.0°
Reaches altitude 10° 03:03:14 10° 41° (NE) 2,966 6.1 -36.5°
Enters shadow 03:07:52 31° 358° (N) 1,837 4.5 -35.7°
